AirNav   Everest Fuels
 
 1059 users online  

0TA4 Erco Field Airport
Kaufman, Texas, USA

GOING TO KAUFMAN?


FAA INFORMATION EFFECTIVE 25 MARCH 2021

Location

FAA Identifier: 0TA4
Lat/Long: 32-29-52.4970N 096-16-13.9240W
32-29.874950N 096-16.232067W
32.4979158,-96.2705344
(estimated)
Elevation: 395 ft. / 120 m (estimated)
Variation: 06E (1990)
From city: 6 miles S of KAUFMAN, TX
Time zone: UTC -5 (UTC -6 during Standard Time)
Zip code: 75142

Airport Operations

Airport use: Private use. Permission required prior to landing
Activation date: 12/1991
Control tower: no
ARTCC: FORT WORTH CENTER
FSS: FORT WORTH FLIGHT SERVICE STATION
Attendance: IREG
Segmented circle: no

Airport Communications

WX ASOS at TRL (13 nm N): 119.275 (972-551-1334)
WX AWOS-3 at HQZ (20 nm NW): 118.175 (972-222-7631)

Nearby radio navigation aids

VOR radial/distance  VOR name  Freq  Var
CQYr346/18.9CEDAR CREEK VORTAC114.8006E
CVEr120/39.7COWBOY VOR/DME116.2006E

 
NDB name  Hdg/Dist  Freq  Var  ID
TRAVIS178/15.826006EAVZ .- ...- --..
MESQUITE142/22.824803EPQF .--. --.- ..-.
POWELL011/27.234406ECGQ -.-. --. --.-
CORSICANA007/28.939606ECRS -.-. .-. ...
CROSSROADS321/30.521508ECSZ -.-. ... --..
PYRAMID348/38.341806EPYF .--. -.-- ..-.

Airport Services

Runway Information

Runway 15/33

Dimensions: 1742 x 50 ft. / 531 x 15 m
Surface: turf
RUNWAY 15  RUNWAY 33
Traffic pattern: rightleft
Displaced threshold: 100 ft.200 ft.
Obstructions: 5 ft. fence, 100 ft. from runway35 ft. pline, marked, 730 ft. from runway

Airport Ownership and Management from official FAA records

Ownership: Privately-owned
Owner: WILLIAM R. BAYNE
12087 FM 2860
KAUFMAN, TX 75142-7801
Phone 214-932-5063
Manager: WILLIAM R. BAYNE
12087 FM 2860
KAUFMAN, TX 75142-7801
Phone 214-932-5063

Airport Operational Statistics

Aircraft based on the field: 1
Single engine airplanes: 1
    

Additional Remarks

STRIP MAY NOT BE MOWED, CLEAR OF LIVESTOCK OR EQUIPMENT.
FOR CD CTC FORT WORTH ARTCC AT 817-858-7584.

Instrument Procedures

There are no published instrument procedures at 0TA4.

Some nearby airports with instrument procedures:

KTRL - Terrell Municipal Airport (13 nm N)
KHQZ - Mesquite Metro Airport (20 nm NW)
F41 - Ennis Municipal Airport (22 nm SW)
KLNC - Lancaster Regional Airport (23 nm W)
F46 - Ralph M Hall/Rockwall Municipal Airport (27 nm N)
 
Loc | Ops | Rwys | IFR | FBO | Links
Com | Nav | Svcs | Stats | Notes

City of Fort Worth
 
Area around 0TA4 (Erco Field Airport)
 
Road maps at: MapQuest Bing Google
 
Aerial photo
No photo
 
Sectional chart

 
Airport distance calculator
Flying to Erco Field Airport? Find the distance to fly.

From to 0TA4

Sunrise and sunset
Times for 17-Apr-2021
 Local
(UTC-5)
 Zulu
(UTC)
Morning civil twilight06:2911:29
Sunrise06:5411:54
Sunset19:5500:55
Evening civil twilight20:2001:20

Current date and time
Zulu (UTC)  17-Apr-2021 13:29:17
Local (UTC-5)  17-Apr-2021 08:29:17
 
METAR
KTRL 
13nm N 
171253Z AUTO 33010G18KT 10SM OVC021 09/06 A3010 RMK AO2 SLP191 T00940056
KHQZ 
20nm NW 
171250Z 31012G17KT 10SM BKN022 09/06 A3011
KLNC 
23nm W 
171315Z AUTO 35010KT 10SM SCT025 SCT110 09/05 A3011 RMK AO2 T00880050
TAF
KDAL 
36nm NW 
171120Z 1712/1812 35017KT P6SM OVC022 FM171500 35016KT P6SM SCT035 BKN100 FM180100 36007KT P6SM SCT090 BKN250
KGKY 
43nm W 
171120Z 1712/1812 35017KT P6SM OVC022 FM171500 35016KT P6SM SCT035 BKN100 FM180100 36007KT P6SM SCT090 BKN250
KDFW 
45nm NW 
171120Z 1712/1818 35017KT P6SM OVC022 FM171500 35016KT P6SM SCT035 BKN100 FM180100 36007KT P6SM SCT090 BKN250
KTYR 
45nm E 
171120Z 1712/1812 34010KT P6SM OVC015 FM172100 36011G17KT P6SM BKN060 FM180300 36006KT P6SM BKN150 FM181000 35004KT P6SM BKN250
NOTAMs
Click for the latest NOTAMs
NOTAMs are issued by the DoD/FAA and will open in a separate window not controlled by AirNav.

 

 
 

Would you like to see your business listed on this page?

 If your business provides an interesting product or service to pilots, flight crews, aircraft, or users of the Erco Field Airport, you should consider listing it here.  To start the listing process, click on the button below
 
Add a business
 

Other Pages about Erco Field Airport

Update a link
 
Copyright © AirNav, LLC. All rights reserved. Privacy Policy  Contact